Location: Unspecified
(0.0000°N, 0.0000°E)
Time: 20:17:57
(UTC+00:00)

Vanguard 1 Rocket - Visible Passes

Search period start: 16 September 2019 00:00
Search period end: 26 September 2019 00:00
Orbit: 652 x 4225 km, 34.3° (Epoch: 15 September)

Date Brightness Start Highest point End Pass type
(mag) Time Alt. Az. Time Alt. Az. Time Alt. Az.
16 Sep 8.1 04:48:18 25° WSW 04:50:22 32° SSW 04:57:07 10° SSE visible
16 Sep 10.9 20:06:46 10° NW 20:11:33 12° NNW 20:15:36 10° NNW visible
17 Sep 8.4 03:41:25 33° SE 03:41:25 33° SE 03:45:05 10° SE visible
17 Sep 10.9 18:41:43 10° W 18:57:13 23° NW 19:07:52 10° NNE visible
18 Sep 8.7 04:51:49 17° SW 04:53:51 20° SSW 04:59:00 10° SSE visible
19 Sep 8.8 03:44:53 23° SSE 03:44:53 23° SSE 03:47:39 10° SE visible
19 Sep 11.0 18:47:37 10° WNW 19:00:42 19° NNW 19:10:12 10° N visible
20 Sep 9.2 04:55:14 10° SW 04:57:27 12° SSW 05:00:03 10° S visible
21 Sep 9.2 03:48:13 15° S 03:48:13 15° S 03:49:48 10° SSE visible
21 Sep 11.0 18:54:00 10° WNW 19:04:34 15° NNW 19:12:38 10° N visible
23 Sep 11.0 19:00:30 10° NW 19:08:47 13° NNW 19:15:26 10° N visible
25 Sep 10.9 19:06:24 10° NW 19:13:16 12° NNW 19:18:55 10° N visible
